Location: Grandview
(34.8900°N, 117.1058°W)
Time: 20:31:00
(UTC-08:00)

Tiangong 2 - Pass Details

Date: 13 October 2017
Orbit: 386 x 390 km, 42.8° (Epoch: 13 December)

Event Time Altitude Azimuth Distance (km) Brightness Sun altitude
Exits shadow 05:59:56 12° 315° (NW) 1,315 3.3 -11.6°
Maximum altitude 06:01:58 19° 359° (N) 1,001 3.1 -11.2°
Drops below altitude 10° 06:04:22 10° 48° (NE) 1,423 4.6 -10.7°
Sets 06:06:51 0° 67° (ENE) 2,279 6.3 -10.2°
